EW4504 Weather Reports


time (UTC)temp
C
wind
direction
speed
KPH
gust
KPH
rain 1hr
cm
rain 24hr
cm
rain mn
cm
humidity
%
barometer
mb
20260903005532 30 0 0.0 0.0 0.00 0.00 0.00 65 1017.4
20260903005031 30 0 0.0 0.0 0.00 0.00 0.00 65 1017.4
20260903004552 30 0 0.0 0.0 0.00 0.00 0.00 64 1017.4
20260903004030 30 0 0.0 0.0 0.00 0.00 0.00 63 1017.2
20260903003529 30 0 0.0 0.0 0.00 0.00 0.00 63 1017.1
20260903003047 31 0 0.0 0.0 0.00 0.00 0.00 63 1017.1
20260903002528 31 0 0.0 0.0 0.00 0.00 0.00 62 1017.1
20260903002029 31 0 0.0 1.6 0.00 0.00 0.00 61 1017.2
20260903001542 31 0 0.0 1.6 0.00 0.00 0.00 60 1017.0
20260903001036 31 0 0.0 0.0 0.00 0.00 0.00 60 1016.9
20260903000528 31 0 0.0 0.0 0.00 0.00 0.00 59 1017.0
20260903000058 32 0 0.0 0.0 0.00 0.00 0.00 59 1016.9
20260902235529 32 0 0.0 0.0 0.00 0.00 0.00 58 1017.0
20260902235032 32 0 0.0 0.0 0.00 0.00 0.00 58 1017.0
20260902234550 32 0 0.0 0.0 0.00 0.00 0.00 58 1017.0
20260902234030 32 0 0.0 0.0 0.00 0.00 0.00 57 1017.0
20260902233528 32 0 0.0 3.2 0.00 0.00 0.00 57 1016.9
20260902233047 32 0 0.0 3.2 0.00 0.00 0.00 56 1016.9
20260902232530 32 0 0.0 3.2 0.00 0.00 0.00 55 1017.0
20260902232029 33 0 0.0 3.2 0.00 0.00 0.00 55 1016.9
20260902231542 33 0 0.0 3.2 0.00 0.00 0.00 54 1017.0
20260902231029 33 0 0.0 6.4 0.00 0.00 0.00 53 1016.9
20260902230531 33 41 0.0 6.4 0.00 0.00 0.00 51 1016.9
20260902230056 33 48 0.0 4.8 0.00 0.00 0.00 51 1016.9
20260902225532 34 49 0.0 6.4 0.00 0.00 0.00 52 1017.0
20260902225032 34 49 1.6 6.4 0.00 0.00 0.00 50 1016.8
20260902224549 34 50 1.6 6.4 0.00 0.00 0.00 50 1017.0
20260902224031 34 110 0.0 8.0 0.00 0.00 0.00 49 1017.0
20260902223530 34 69 3.2 9.7 0.00 0.00 0.00 49 1017.0
20260902223046 34 90 3.2 9.7 0.00 0.00 0.00 49 1017.0
20260902222530 34 72 3.2 8.0 0.00 0.00 0.00 48 1017.0
20260902222030 35 48 3.2 9.7 0.00 0.00 0.00 47 1017.0
20260902221553 35 40 1.6 9.7 0.00 0.00 0.00 48 1017.1
20260902221030 35 40 3.2 14.5 0.00 0.00 0.00 47 1017.0
20260902220528 35 39 6.4 14.5 0.00 0.00 0.00 47 1017.1
20260902220049 35 140 4.8 11.3 0.00 0.00 0.00 47 1017.1
20260902215531 35 0 1.6 9.7 0.00 0.00 0.00 46 1017.1
20260902215027 35 59 3.2 8.0 0.00 0.00 0.00 46 1017.1
20260902214559 35 50 3.2 9.7 0.00 0.00 0.00 45 1017.2
20260902214029 35 40 4.8 9.7 0.00 0.00 0.00 46 1017.2
20260902213528 35 20 3.2 12.9 0.00 0.00 0.00 47 1017.2
20260902213052 35 32 4.8 12.9 0.00 0.00 0.00 47 1017.2
20260902212528 35 0 1.6 14.5 0.00 0.00 0.00 46 1017.2
20260902212031 35 19 4.8 14.5 0.00 0.00 0.00 47 1017.2
20260902211603 35 139 1.6 12.9 0.00 0.00 0.00 47 1017.2
20260902211028 35 101 1.6 9.7 0.00 0.00 0.00 48 1017.2
20260902210531 35 92 1.6 9.7 0.00 0.00 0.00 48 1017.3
20260902210110 35 126 1.6 6.4 0.00 0.00 0.00 48 1017.3
20260902205531 35 34 3.2 6.4 0.00 0.00 0.00 48 1017.4
20260902205029 35 30 1.6 8.0 0.00 0.00 0.00 47 1017.4
20260902204550 35 0 1.6 8.0 0.00 0.00 0.00 48 1017.4
20260902204028 35 36 1.6 9.7 0.00 0.00 0.00 47 1017.5
20260902203528 35 42 1.6 9.7 0.00 0.00 0.00 47 1017.4
20260902203052 35 40 4.8 11.3 0.00 0.00 0.00 48 1017.5
20260902202528 35 127 0.0 11.3 0.00 0.00 0.00 48 1017.6
20260902202029 35 156 3.2 11.3 0.00 0.00 0.00 47 1017.6
20260902201607 35 273 1.6 14.5 0.00 0.00 0.00 47 1017.6
20260902201028 35 42 4.8 14.5 0.00 0.00 0.00 46 1017.8
20260902200531 35 53 3.2 8.0 0.00 0.00 0.00 48 1017.9
20260902200047 35 0 1.6 14.5 0.00 0.00 0.00 47 1017.9
20260902195532 35 94 3.2 17.7 0.00 0.00 0.00 46 1018.0
20260902195030 35 59 4.8 17.7 0.00 0.00 0.00 47 1018.0
20260902194550 35 25 4.8 9.7 0.00 0.00 0.00 49 1018.0
20260902194031 35 0 0.0 14.5 0.00 0.00 0.00 50 1018.0
20260902193529 35 0 3.2 14.5 0.00 0.00 0.00 49 1018.1
20260902193053 35 119 6.4 14.5 0.00 0.00 0.00 48 1018.2
20260902192528 35 209 1.6 12.9 0.00 0.00 0.00 47 1018.2
20260902192028 36 148 1.6 11.3 0.00 0.00 0.00 48 1018.2
20260902191558 35 0 1.6 11.3 0.00 0.00 0.00 47 1018.3
20260902191028 35 65 1.6 8.0 0.00 0.00 0.00 47 1018.3
20260902190528 35 59 1.6 8.0 0.00 0.00 0.00 47 1018.4
20260902190046 35 67 1.6 8.0 0.00 0.00 0.00 47 1018.4
20260902185533 34 82 1.6 6.4 0.00 0.00 0.00 48 1018.6
20260902185030 34 51 0.0 6.4 0.00 0.00 0.00 50 1018.6
20260902184543 34 0 1.6 8.0 0.00 0.00 0.00 49 1018.6
20260902184032 34 56 3.2 8.0 0.00 0.00 0.00 49 1018.7
20260902183529 34 40 3.2 8.0 0.00 0.00 0.00 50 1018.7
20260902183054 34 0 1.6 8.0 0.00 0.00 0.00 51 1018.7
20260902182532 34 226 4.8 8.0 0.00 0.00 0.00 51 1018.8
20260902182028 34 153 4.8 8.0 0.00 0.00 0.00 52 1018.8
20260902181603 33 0 3.2 9.7 0.00 0.00 0.00 51 1018.8
20260902181034 34 205 3.2 14.5 0.00 0.00 0.00 52 1018.9
20260902180531 34 292 4.8 16.1 0.00 0.00 0.00 51 1018.8
20260902180108 35 331 4.8 16.1 0.00 0.00 0.00 50 1018.9
20260902175534 35 5 4.8 12.9 0.00 0.00 0.00 48 1018.9
20260902175031 35 35 3.2 16.1 0.00 0.00 0.00 47 1018.9
20260902174556 35 44 6.4 16.1 0.00 0.00 0.00 47 1019.1
20260902174031 35 196 6.4 12.9 0.00 0.00 0.00 48 1019.1
20260902173531 35 340 1.6 8.0 0.00 0.00 0.00 50 1019.2
20260902173043 35 33 3.2 14.5 0.00 0.00 0.00 49 1019.3
20260902172529 35 5 6.4 14.5 0.00 0.00 0.00 50 1019.4
20260902172028 35 334 3.2 11.3 0.00 0.00 0.00 50 1019.5
20260902171547 35 111 3.2 6.4 0.00 0.00 0.00 51 1019.6
20260902171029 35 0 0.0 6.4 0.00 0.00 0.00 52 1019.7
20260902170531 35 0 1.6 12.9 0.00 0.00 0.00 51 1019.7
20260902170049 35 331 6.4 12.9 0.00 0.00 0.00 51 1019.8
20260902165531 35 315 1.6 9.7 0.00 0.00 0.00 51 1019.8
20260902165031 35 0 3.2 12.9 0.00 0.00 0.00 51 1019.7
20260902164547 35 323 4.8 12.9 0.00 0.00 0.00 52 1019.9
20260902164031 35 298 1.6 12.9 0.00 0.00 0.00 53 1019.9
20260902163529 35 49 4.8 9.7 0.00 0.00 0.00 53 1020.0
20260902163043 34 53 1.6 9.7 0.00 0.00 0.00 54 1020.0
20260902162527 34 34 1.6 9.7 0.00 0.00 0.00 56 1020.0
20260902162031 34 47 3.2 9.7 0.00 0.00 0.00 57 1020.1
20260902161556 33 78 1.6 11.3 0.00 0.00 0.00 59 1020.2
20260902161028 33 67 1.6 11.3 0.00 0.00 0.00 59 1020.1
20260902160527 33 17 3.2 9.7 0.00 0.00 0.00 60 1020.2
20260902160041 32 138 1.6 9.7 0.00 0.00 0.00 62 1020.2
20260902155533 32 284 1.6 8.0 0.00 0.00 0.00 63 1020.3
20260902155029 32 304 3.2 8.0 0.00 0.00 0.00 63 1020.3
20260902154546 32 329 3.2 8.0 0.00 0.00 0.00 63 1020.3
20260902154031 32 67 3.2 9.7 0.00 0.00 0.00 64 1020.4
20260902153530 32 36 3.2 9.7 0.00 0.00 0.00 65 1020.5
20260902153051 31 213 1.6 6.4 0.00 0.00 0.00 66 1020.4
20260902152535 31 0 3.2 9.7 0.00 0.00 0.00 66 1020.4
20260902152031 31 0 1.6 9.7 0.00 0.00 0.00 67 1020.5
20260902151550 31 280 3.2 8.0 0.00 0.00 0.00 68 1020.5
20260902151033 31 0 3.2 8.0 0.00 0.00 0.00 69 1020.4
20260902150531 30 66 1.6 8.0 0.00 0.00 0.00 71 1020.5
20260902150051 30 342 3.2 8.0 0.00 0.00 0.00 70 1020.5
20260902145532 30 0 0.0 4.8 0.00 0.00 0.00 73 1020.5
20260902145034 29 178 1.6 4.8 0.00 0.00 0.00 73 1020.4
20260902144601 29 47 0.0 8.0 0.00 0.00 0.00 73 1020.5
20260902144032 29 0 3.2 8.0 0.00 0.00 0.00 73 1020.5
20260902143532 29 65 3.2 8.0 0.00 0.00 0.00 74 1020.4
20260902143053 29 0 1.6 6.4 0.00 0.00 0.00 75 1020.4
20260902142531 28 10 1.6 6.4 0.00 0.00 0.00 76 1020.4
20260902142033 28 340 0.0 6.4 0.00 0.00 0.00 77 1020.4
20260902141545 28 341 3.2 6.4 0.00 0.00 0.00 77 1020.3
20260902141035 28 0 1.6 6.4 0.00 0.00 0.00 79 1020.4
20260902140532 28 0 0.0 4.8 0.00 0.00 0.00 80 1020.4
20260902140055 27 0 1.6 4.8 0.00 0.00 0.00 81 1020.3
20260902135532 27 52 0.0 4.8 0.00 0.00 0.00 82 1020.3
20260902135030 27 57 1.6 4.8 0.00 0.00 0.00 82 1020.5
20260902134549 27 67 1.6 6.4 0.00 0.00 0.00 83 1020.4
20260902134033 27 69 1.6 6.4 0.00 0.00 0.00 84 1020.4
20260902133532 26 0 1.6 6.4 0.00 0.00 0.00 85 1020.5
20260902133054 26 0 0.0 6.4 0.00 0.00 0.00 86 1020.4
20260902132532 26 0 0.0 6.4 0.00 0.00 0.00 86 1020.5
20260902132033 26 76 1.6 6.4 0.00 0.00 0.00 87 1020.5
20260902131548 25 66 1.6 6.4 0.00 0.00 0.00 88 1020.6
20260902131034 25 46 1.6 4.8 0.00 0.00 0.00 89 1020.5
20260902130532 25 46 1.6 4.8 0.00 0.00 0.00 89 1020.4
20260902125535 24 0 0.0 3.2 0.00 0.00 0.00 90 1020.4
20260902125034 24 0 0.0 3.2 0.00 0.00 0.00 90 1020.4
20260902124549 23 0 0.0 3.2 0.00 0.00 0.00 91 1020.4
20260902124031 23 43 0.0 3.2 0.00 0.00 0.00 91 1020.4
20260902123545 23 43 1.6 4.8 0.00 0.00 0.00 91 1020.3
20260902123052 23 40 0.0 4.8 0.00 0.00 0.00 92 1020.4
20260902122531 23 0 1.6 4.8 0.00 0.00 0.00 92 1020.3
20260902122031 23 36 0.0 4.8 0.00 0.00 0.00 92 1020.3
20260902121546 23 0 0.0 4.8 0.00 0.00 0.00 92 1020.3
20260902121034 22 30 0.0 4.8 0.00 0.00 0.00 92 1020.1
20260902120533 22 30 0.0 3.2 0.00 0.00 0.00 92 1020.0
20260902120052 22 30 1.6 3.2 0.00 0.00 0.00 92 1020.0
20260902115535 22 31 1.6 3.2 0.00 0.00 0.00 92 1020.0
20260902115030 22 0 0.0 0.0 0.00 0.00 0.00 92 1019.9
20260902114551 22 0 0.0 0.0 0.00 0.00 0.00 91 1019.8
20260902114036 22 0 0.0 0.0 0.00 0.00 0.00 91 1019.8
20260902113531 22 0 0.0 0.0 0.00 0.00 0.00 91 1019.6
20260902113053 22 0 0.0 0.0 0.00 0.00 0.00 91 1019.6
20260902112531 22 0 0.0 0.0 0.00 0.00 0.00 91 1019.6
20260902112031 22 0 0.0 0.0 0.00 0.00 0.00 91 1019.5
20260902111549 22 0 0.0 0.0 0.00 0.00 0.00 92 1019.5
20260902111033 22 0 0.0 0.0 0.00 0.00 0.00 92 1019.4
20260902110530 22 0 0.0 0.0 0.00 0.00 0.00 92 1019.4
20260902110044 22 0 0.0 0.0 0.00 0.00 0.00 92 1019.4
20260902105530 22 0 0.0 0.0 0.00 0.00 0.00 91 1019.4
20260902105030 22 0 0.0 0.0 0.00 0.00 0.00 91 1019.4
20260902104550 22 0 0.0 0.0 0.00 0.00 0.00 91 1019.4
20260902104032 22 0 0.0 0.0 0.00 0.00 0.00 91 1019.4
20260902103532 22 0 0.0 0.0 0.00 0.00 0.00 91 1019.4
20260902103047 22 0 0.0 0.0 0.00 0.00 0.00 91 1019.3
20260902102532 22 0 0.0 0.0 0.00 0.00 0.00 91 1019.3
20260902102029 22 0 0.0 0.0 0.00 0.00 0.00 91 1019.2
20260902101541 22 0 0.0 0.0 0.00 0.00 0.00 91 1019.2
20260902101029 22 0 0.0 1.6 0.00 0.00 0.00 90 1019.1
20260902100531 23 0 0.0 1.6 0.00 0.00 0.00 91 1019.1
20260902100101 22 0 0.0 0.0 0.00 0.00 0.00 91 1019.2
20260902095533 23 0 0.0 0.0 0.00 0.00 0.00 90 1019.2
20260902095030 23 0 0.0 0.0 0.00 0.00 0.00 90 1019.2
20260902094607 23 0 0.0 0.0 0.00 0.00 0.00 90 1019.1
20260902094032 23 0 0.0 0.0 0.00 0.00 0.00 90 1019.0
20260902093529 23 0 0.0 1.6 0.00 0.00 0.00 90 1018.9
20260902093052 23 0 0.0 3.2 0.00 0.00 0.00 91 1019.0
20260902092532 23 0 0.0 3.2 0.00 0.00 0.00 91 1019.0
20260902092031 23 0 0.0 3.2 0.00 0.00 0.00 91 1018.9
20260902091559 23 0 0.0 0.0 0.00 0.00 0.00 90 1018.8
20260902091033 23 0 0.0 3.2 0.00 0.00 0.00 90 1018.7
20260902090530 23 0 0.0 4.8 0.00 0.00 0.00 90 1018.7
20260902090051 23 0 1.6 4.8 0.00 0.00 0.00 90 1018.6
20260902085532 23 30 1.6 4.8 0.00 0.00 0.00 90 1018.7
20260902085033 23 0 0.0 1.6 0.00 0.00 0.00 90 1018.6
20260902084543 23 0 0.0 0.0 0.00 0.00 0.00 90 1018.6
20260902084031 23 0 0.0 0.0 0.00 0.00 0.00 90 1018.6
20260902083531 23 0 0.0 0.0 0.00 0.00 0.00 90 1018.5
20260902083052 23 0 0.0 0.0 0.00 0.00 0.00 90 1018.4
20260902082531 23 0 0.0 0.0 0.00 0.00 0.00 90 1018.4
20260902082034 23 0 0.0 0.0 0.00 0.00 0.00 90 1018.4
20260902081551 23 0 0.0 0.0 0.00 0.00 0.00 89 1018.3
20260902081031 23 0 0.0 0.0 0.00 0.00 0.00 89 1018.2
20260902080533 23 0 0.0 0.0 0.00 0.00 0.00 89 1018.2
20260902080111 23 0 0.0 0.0 0.00 0.00 0.00 89 1018.1
20260902075533 23 0 0.0 0.0 0.00 0.00 0.00 89 1018.2
20260902075030 23 0 0.0 0.0 0.00 0.00 0.00 89 1018.2
20260902074548 23 0 0.0 0.0 0.00 0.00 0.00 89 1018.2
20260902074028 23 0 0.0 0.0 0.00 0.00 0.00 89 1018.2
20260902073533 23 0 0.0 0.0 0.00 0.00 0.00 89 1018.2
20260902073048 23 0 0.0 0.0 0.00 0.00 0.00 89 1018.3
20260902072530 23 0 0.0 0.0 0.00 0.00 0.00 89 1018.3
20260902072033 23 0 0.0 0.0 0.00 0.00 0.00 88 1018.4
20260902071546 23 0 0.0 0.0 0.00 0.00 0.00 88 1018.3
20260902071031 23 0 0.0 0.0 0.00 0.00 0.00 88 1018.4
20260902070532 23 0 0.0 0.0 0.00 0.00 0.00 88 1018.3
20260902070100 23 0 0.0 0.0 0.00 0.00 0.00 88 1018.5
20260902065529 23 0 0.0 0.0 0.00 0.00 0.00 88 1018.4
20260902065030 23 0 0.0 0.0 0.00 0.00 0.00 88 1018.4
20260902064605 23 0 0.0 0.0 0.00 0.00 0.00 87 1018.5
20260902064033 23 0 0.0 0.0 0.00 0.00 0.00 87 1018.5
20260902063536 23 0 0.0 0.0 0.00 0.00 0.00 87 1018.6
20260902063048 23 0 0.0 0.0 0.00 0.00 0.00 87 1018.6
20260902062533 24 0 0.0 0.0 0.00 0.00 0.00 87 1018.6
20260902062029 24 0 0.0 0.0 0.00 0.00 0.00 87 1018.6
20260902061554 24 0 0.0 0.0 0.00 0.00 0.00 87 1018.6
20260902061036 24 0 0.0 0.0 0.00 0.00 0.00 86 1018.6
20260902060532 24 0 0.0 0.0 0.00 0.00 0.00 86 1018.6
20260902060046 24 0 0.0 0.0 0.00 0.00 0.00 86 1018.6
20260902055533 24 0 0.0 1.6 0.00 0.00 0.00 86 1018.6
20260902055029 24 0 0.0 1.6 0.00 0.00 0.00 86 1018.6
20260902054542 24 37 0.0 1.6 0.00 0.00 0.00 86 1018.6
20260902054032 24 0 0.0 0.0 0.00 0.00 0.00 86 1018.7
20260902053532 24 0 0.0 0.0 0.00 0.00 0.00 85 1018.7
20260902053058 25 0 0.0 0.0 0.00 0.00 0.00 85 1018.6
20260902052531 25 0 0.0 0.0 0.00 0.00 0.00 85 1018.7
20260902052032 25 0 0.0 0.0 0.00 0.00 0.00 85 1018.8
20260902051551 25 0 0.0 0.0 0.00 0.00 0.00 85 1018.8
20260902051033 25 0 0.0 0.0 0.00 0.00 0.00 84 1018.7
20260902050529 25 0 0.0 0.0 0.00 0.00 0.00 84 1018.8
20260902050053 25 0 0.0 0.0 0.00 0.00 0.00 84 1018.7
20260902045534 25 0 0.0 0.0 0.00 0.00 0.00 84 1018.7
20260902045032 25 0 0.0 0.0 0.00 0.00 0.00 84 1018.8
20260902044555 25 0 0.0 0.0 0.00 0.00 0.00 84 1018.8
20260902044034 25 0 0.0 0.0 0.00 0.00 0.00 83 1018.8
20260902043530 25 0 0.0 0.0 0.00 0.00 0.00 83 1018.8
20260902043051 25 0 0.0 0.0 0.00 0.00 0.00 83 1018.8
20260902042533 25 0 0.0 0.0 0.00 0.00 0.00 83 1018.7
20260902042032 25 0 0.0 3.2 0.00 0.00 0.00 82 1018.8
20260902041553 25 0 0.0 3.2 0.00 0.00 0.00 82 1018.8
20260902041031 25 37 0.0 3.2 0.00 0.00 0.00 82 1018.8
20260902040529 25 0 0.0 0.0 0.00 0.00 0.00 81 1018.7
20260902040046 25 0 0.0 0.0 0.00 0.00 0.00 81 1018.7
20260902035532 26 0 0.0 0.0 0.00 0.00 0.00 80 1018.8
20260902035032 26 0 0.0 0.0 0.00 0.00 0.00 80 1018.8
20260902034600 26 0 0.0 0.0 0.00 0.00 0.00 80 1018.8
20260902034032 26 0 0.0 0.0 0.00 0.00 0.00 80 1018.9
20260902033532 26 0 0.0 0.0 0.00 0.00 0.00 79 1018.8
20260902033057 26 0 0.0 0.0 0.00 0.00 0.00 78 1018.9
20260902032532 26 0 0.0 0.0 0.00 0.00 0.00 78 1018.8
20260902032033 26 0 0.0 0.0 0.00 0.00 0.00 78 1018.8
20260902031556 26 0 0.0 0.0 0.00 0.00 0.00 77 1018.8
20260902031030 26 0 0.0 0.0 0.00 0.00 0.00 77 1018.8
20260902030530 26 0 0.0 0.0 0.00 0.00 0.00 77 1018.7
20260902030047 26 0 0.0 0.0 0.00 0.00 0.00 77 1018.8
20260902025534 26 0 0.0 0.0 0.00 0.00 0.00 78 1018.8
20260902025034 26 0 0.0 0.0 0.00 0.00 0.00 78 1018.8
20260902024556 26 0 0.0 0.0 0.00 0.00 0.00 77 1018.7
20260902024032 26 0 0.0 0.0 0.00 0.00 0.00 77 1018.7
20260902023528 26 0 0.0 0.0 0.00 0.00 0.00 76 1018.8
20260902023043 26 0 0.0 0.0 0.00 0.00 0.00 76 1018.8
20260902022535 27 0 0.0 0.0 0.00 0.00 0.00 76 1018.7
20260902022032 27 0 0.0 0.0 0.00 0.00 0.00 76 1018.7
20260902021601 27 0 0.0 1.6 0.00 0.00 0.00 76 1018.7
20260902021032 27 0 0.0 1.6 0.00 0.00 0.00 76 1018.7
20260902020534 27 37 0.0 0.0 0.00 0.00 0.00 76 1018.6
20260902020048 27 0 0.0 0.0 0.00 0.00 0.00 75 1018.6
20260902015532 27 0 0.0 0.0 0.00 0.00 0.00 75 1018.4
20260902015031 27 0 0.0 0.0 0.00 0.00 0.00 75 1018.4
20260902014546 27 0 0.0 0.0 0.00 0.00 0.00 75 1018.4
20260902014034 27 0 0.0 0.0 0.00 0.00 0.00 75 1018.4
20260902013529 27 0 0.0 3.2 0.00 0.00 0.00 74 1018.3
20260902013050 27 0 0.0 3.2 0.00 0.00 0.00 74 1018.3
20260902012532 28 0 0.0 3.2 0.00 0.00 0.00 73 1018.2
20260902012033 28 0 0.0 0.0 0.00 0.00 0.00 72 1018.2
20260902011549 28 0 0.0 0.0 0.00 0.00 0.00 72 1018.2
20260902011030 28 0 0.0 0.0 0.00 0.00 0.00 71 1018.1
20260902010534 28 0 0.0 0.0 0.00 0.00 0.00 70 1017.9
20260902010051 28 0 0.0 0.0 0.00 0.00 0.00 70 1017.9